Location: Unspecified
(38.0989°N, 0.6729°W)
Time: 13:52:37
(UTC+02:00)

Tiangong 1 - Visible Passes

Search period start: 23 April 2017 00:00
Search period end: 03 May 2017 00:00
Orbit: 330 x 353 km, 42.8° (Epoch: 21 April)

Date Brightness Start Highest point End Pass type
(mag) Time Alt. Az. Time Alt. Az. Time Alt. Az.
23 Apr 3.7 04:55:34 19° NE 04:55:34 19° NE 04:56:39 10° ENE visible
23 Apr 2.3 06:27:33 10° WNW 06:30:10 34° N 06:32:49 10° ENE visible
24 Apr 2.6 05:16:44 29° N 05:16:44 29° N 05:19:04 10° ENE visible
25 Apr 2.3 05:37:54 25° NW 05:38:56 34° N 05:41:34 10° ENE visible
26 Apr 1.3 05:59:07 16° WNW 06:01:11 59° NNE 06:04:00 10° E visible
27 Apr 3.7 04:49:07 18° ENE 04:49:07 18° ENE 04:50:03 10° E visible
27 Apr 0.9 06:20:28 10° WNW 06:23:15 56° SSW 06:26:02 10° SE visible
28 Apr 2.5 05:10:39 31° E 05:10:39 31° E 05:12:19 10° ESE visible
29 Apr 2.0 05:32:25 31° SSE 05:32:25 31° SSE 05:34:10 10° SE visible
30 Apr 3.1 05:54:32 13° S 05:54:32 13° S 05:55:09 10° SSE visible
01 May 3.6 22:34:58 10° SW 22:35:00 10° SW 22:35:00 10° SW visible
02 May 2.8 21:22:09 10° S 21:23:43 14° SE 21:25:17 10° ESE visible
02 May 3.2 22:56:18 10° WSW 22:57:09 18° WSW 22:57:09 18° WSW visible
